Regional Weather Roundup
Issued by NWS

Home | Current Version | Previous Version | Graphics & Text | Print | Product List | Glossary Off
Versions: 1 2 3 4 5 6 7 8 9 10 11 12 13 14 15 16 17 18 19 20 21 22 23 24 25 26 27 28 29 30 31 32 33 34 35 36 37 38 39 40 41 42 43 44 45 46 47 48 49 50

000
ASUS43 KMKX 290200
RWRWI

WISCONSIN REGIONAL WEATHER ROUNDUP
NATIONAL WEATHER SERVICE MILWAUKEE/SULLIVAN WI
900 PM CDT THU APR 28 2016

NOTE: "FAIR" INDICATES FEW OR NO CLOUDS BELOW 12,000 FEET WITH NO
SIGNIFICANT WEATHER AND/OR OBSTRUCTIONS TO VISIBILITY.

WIZ001-002-006>008-014>016-023>028-290300-
NORTHWEST WISCONSIN

CITY           SKY/WX    TMP DP  RH WIND       PRES   REMARKS
SUPERIOR ARPT  MOCLDY    37  31  80 NE12      30.14R WCI  29
ASHLAND        PTCLDY    33  28  81 NE5       30.13S WCI  29
HAYWARD        CLOUDY    41  25  53 N8        30.09R
SIREN          CLOUDY    45  25  45 NE3       30.10R
CUMBERLAND     CLOUDY    43  36  75 S3        30.08R
RICE LAKE      CLOUDY    42  36  77 S5        30.10R
CHETEK         CLOUDY    41  36  81 CALM      30.09S
LADYSMITH      CLOUDY    44  35  69 SW5       30.09R
EAU CLAIRE     NOT AVBL
MENOMONIE      CLOUDY    39  39  99 E7        30.09R WCI  34
NEW RICHMOND   DRIZZLE   40  38  95 SW5       30.09S
OSCEOLA        RAIN      41  41 100 CALM      30.13R
$$

WIZ003>005-009-010-017-018-290300-
NORTH CENTRAL WISCONSIN

CITY           SKY/WX    TMP DP  RH WIND       PRES   REMARKS
MANITOWISH WTR PTCLDY    44  29  56 N6        30.05R
ARBOR VITAE    PTCLDY    49  28  42 NE8       30.04R
WOODRUFF       PTCLDY    49  28  42 NE8       30.04R
RHINELANDER    CLOUDY    47  22  37 S5        30.05R
EAGLE RIVER    CLOUDY    48  26  43 NE10      30.04R
LAND O LAKES   CLOUDY    45  25  45 NE7       30.07R
PHILLIPS       CLOUDY    46  31  55 N8        30.05R
TOMAHAWK       CLOUDY    43  31  62 CALM      30.06R
MEDFORD        DRIZZLE   39  37  91 S8        30.05S WCI  33
MERRILL        CLOUDY    44  31  60 SE6       30.07R
$$

WIZ029-030-035-036-043>047-290300-
CENTRAL WISCONSIN

CITY           SKY/WX    TMP DP  RH WIND       PRES   REMARKS
WAUSAU         CLOUDY    39  35  86 E5        30.07R
MOSINEE        CLOUDY    37  36  93 E8        30.09R WCI  31
MARSHFIELD     LGT RAIN  40  36  86 E7        30.07R FOG
STEVENS POINT  RAIN      36  32  87 NE13G18   30.09R WCI  27
WAUPACA        CLOUDY    42  34  72 N7        30.07R
WAUTOMA        LGT RAIN  42  34  73 E6        30.07R
WISC RAPIDS    CLOUDY    39  32  76 NE12      30.09R WCI  32
CAMP DOUGLAS   NOT AVBL
$$

WIZ011>013-019>022-031-037>040-048>050-290300-
NORTHEAST WISCONSIN

CITY           SKY/WX    TMP DP  RH WIND       PRES   REMARKS
ANTIGO         DRIZZLE   39  33  78 SE10      30.07R WCI  32
SHAWANO        DRIZZLE   40  35  82 NE9       30.09S WCI  34
OCONTO         CLOUDY    42  32  68 NW3       30.07R
STURGEON BAY   CLOUDY    43  28  56 NE6       30.09R
GREEN BAY      CLOUDY    43  34  70 N6        30.06S
MANITOWOC      NOT AVBL
APPLETON       CLOUDY    43  28  56 NE6       30.05R
CLINTONVILLE   CLOUDY    39  32  75 N7        30.07S WCI  34
OSHKOSH        CLOUDY    42  33  70 NE7       30.05R
$$

WIZ032>034-041-042-053>061-290300-
SOUTHWEST WISCONSIN

CITY           SKY/WX    TMP DP  RH WIND       PRES   REMARKS
LA CROSSE      CLOUDY    42  37  82 E9        30.07R
SPARTA         CLOUDY    39  37  94 NE5       30.07R
VIROQUA        CLOUDY    39  38  97 NE7       30.05R WCI  34
BOSCOBEL       LGT RAIN  42  40  92 E5        30.05R FOG
PRAIRIE DU CHI LGT RAIN  42  38  88 CALM      30.04R
PLATTEVILLE    CLOUDY    41  40  96 NE7       30.01R
$$

WIZ056-057-062-063-064-067-068-290300-
SOUTH CENTRAL WISCONSIN

CITY           SKY/WX    TMP DP  RH WIND       PRES   REMARKS
REEDSBURG      LGT RAIN  39  38  97 CALM      30.06R
BARABOO/DELLS  CLOUDY    39  38  94 CALM      30.04R FOG
LONE ROCK      NOT AVBL
MINERAL POINT  LGT RAIN  41  41 100 NE6       30.01R
MADISON        CLOUDY    40  37  89 E8        30.04R WCI  34
MIDDLETON      CLOUDY    41  39  91 NE5       30.04R
WATERTOWN      CLOUDY    39  38  94 NE7       30.03R WCI  34
MONROE         CLOUDY    39  37  93 NE10      30.01R FOG     WCI  32
JANESVILLE     CLOUDY    43  41  93 E7        30.02R FOG
$$

WIZ051-052-058>065-066-070>072-290300-
SOUTHEAST WISCONSIN

CITY           SKY/WX    TMP DP  RH WIND       PRES   REMARKS
MILWAUKEE      CLOUDY    41  37  86 NE8       30.03R
WAUKESHA       CLOUDY    37  36  93 NE8       30.03R WCI  31
MILWAUKEE/TIMM CLOUDY    39  36  87 NE7       30.03R WCI  34
RACINE         CLOUDY    41  37  86 NE10      30.03S
BURLINGTON     CLOUDY    38  38  98 NE6       30.02R FOG     WCI  34
KENOSHA        CLOUDY    41  38  89 NE7       30.02R
FOND DU LAC    CLOUDY    41  38  89 E6        30.05R
SHEBOYGAN      CLOUDY    41  35  79 N5        30.04R
WEST BEND      CLOUDY    39  36  87 E8G17     30.03R WCI  34
JUNEAU         CLOUDY    38  36  91 NE7       30.04S WCI  33
$$

LSZ147-162-290300-
LAKE SUPERIOR

STATION/POSITION TIME  TEMP    WIND        PRES    WAVE
                       AIR SEA DIR/SP/G            HT/PER
                 (UTC) (F)     (DEG/KT/KT) (MB)    (FT/S)
W MID LAKE BUOY  0050   37 36   70/ 12/ 14 1020.9R   3/ 5
DEVILS ISLAND    0100   38      20/  9/  9 1021.3R
SAXON HARBOR     0100   39      20/  6/  8 1019.6R
$$

LMZ867-665-643>646-290300-
LAKE MICHIGAN

STATION/POSITION TIME  TEMP    WIND        PRES    WAVE
                       AIR SEA DIR/SP/G            HT/PER
                 (UTC) (F)     (DEG/KT/KT) (MB)    (FT/S)
CHAMBERS ISLAND  0100   42      40/  4/  6 1018.6R
N MID LAKE BUOY  0050   40 38   60/ 12/ 12 1017.8F   1/ 3
NORTHPORT PIER   0100   42      70/  6/  9 1018.3R
ALGOMA LAKESHORE 0115           60/ 11/ 15   N/A
KEWAUNEE LAKESHO 0100   41                 1016.8S
SHEBOYGAN LAKESH 0100   41      20/ 11/ 12 1017.9R
PORT WASHINGTON  0140   44      90/  9/ 13 1017.9R
S MID LAKE BUOY  0050   40 40   70/ 14/ 16 1015.2R   2/ 4
KENOSHA   LAKESH 0100   41      20/ 13/ 15 1015.9R
$$

TC  - TEMPERATURE IN CELSIUS
VSB - VISIBILITY IN STATUTE MILES
WCI - WIND CHILL INDEX
HX  - HEAT INDEX





USA.gov is the U.S. government's official web portal to all federal, state and local government web resources and services.